This is the latest recevied weather packets stored in our database for station/object W8UFO-13. If no packets are shown the sender has not sent any weather packets the latest 10 day(s).
| Time | Temp. | Humidity | Pressure | Rain* | Wind** | Luminosity | Snow |
|---|---|---|---|---|---|---|---|
| 1777989256 | 19.44° C | 62% | 1017.1 hPa | 0 mm | - | - | - |
| 1777988956 | 19.44° C | 62% | 1017 hPa | 0 mm | - | - | - |
| 1777988657 | 18.89° C | 64% | 1016.9 hPa | 0 mm | - | - | - |
| 1777988357 | 18.33° C | 65% | 1016.9 hPa | 0 mm | - | - | - |
| 1777988056 | 18.33° C | 65% | 1016.9 hPa | 0 mm | - | - | - |
| 1777987757 | 18.33° C | 66% | 1016.8 hPa | 0 mm | - | - | - |
| 1777987457 | 17.78° C | 67% | 1016.8 hPa | 0 mm | - | - | - |
| 1777987157 | 17.78° C | 66% | 1016.8 hPa | 0 mm | - | - | - |
| 1777986857 | 17.78° C | 67% | 1016.9 hPa | 0 mm | - | - | - |
| 1777986557 | 17.22° C | 67% | 1016.8 hPa | 0 mm | - | - | - |
| 1777986257 | 17.22° C | 67% | 1016.8 hPa | 0 mm | - | - | - |
| 1777985957 | 17.22° C | 68% | 1016.8 hPa | 0 mm | - | - | - |
| 1777985657 | 17.22° C | 70% | 1016.9 hPa | 0 mm | - | - | - |
| 1777985357 | 16.67° C | 71% | 1016.6 hPa | 0 mm | - | - | - |
| 1777985057 | 16.11° C | 75% | 1016.5 hPa | 0 mm | - | - | - |
| 1777984756 | 15.56° C | 76% | 1016.5 hPa | 0 mm | - | - | - |
| 1777984457 | 15° C | 74% | 1016.4 hPa | 0 mm | - | - | - |
| 1777984156 | 14.44° C | 79% | 1016.3 hPa | 0 mm | - | - | - |
| 1777983857 | 14.44° C | 80% | 1016.2 hPa | 0 mm | - | - | - |
| 1777983557 | 13.89° C | 82% | 1016.1 hPa | 0 mm | - | - | - |
| 1777983256 | 13.89° C | 85% | 1016.2 hPa | 0 mm | - | - | - |
| 1777982956 | 13.33° C | 86% | 1016.3 hPa | 0 mm | - | - | - |
| 1777982656 | 12.78° C | 87% | 1016.2 hPa | 0 mm | - | - | - |
| 1777982356 | 12.22° C | 86% | 1016.2 hPa | 0 mm | - | - | - |
| 1777982057 | 12.22° C | 86% | 1016.1 hPa | 0 mm | - | - | - |
* Rain latest hour (hover to see other rain measurements)
** Current wind speed in m/s (hover to see current wind gust speed)